Location: Ayers Watershed UT-4-1 Dam
(34.5884°N, 89.1067°W)
Time: 01:28:05
(UTC+00:00)

Daily predictions for brighter satellites

Satellite Brightness Start Highest point End
(mag) Time Altitude Azimuth Time Altitude Azimuth Time Altitude Azimuth
ERS-2 2.9 00:00:01 10° N 00:03:34 52° WNW 00:07:07 10° SSW
Cosmos 1939 Rocket 2.6 00:00:37 10° SSE 00:04:25 68° ENE 00:08:18 10° N
Cosmos 923 Rocket 4.5 00:02:20 10° SSE 00:07:05 38° E 00:09:09 27° NE
H-2A R/B 3.5 00:10:50 20° NE 00:10:50 20° NE 00:12:59 10° NNE
Cosmos 2366 rocket 4.0 00:02:49 10° N 00:09:01 87° W 00:15:09 10° S
USA 81 4.4 00:04:03 10° N 00:09:18 70° W 00:14:32 10° S
CREW DRAGON DEMO-1 DEB 2.5 00:09:32 10° NW 00:12:31 84° NE 00:12:54 64° ESE
Cosmos 44 3.5 00:09:35 10° NNW 00:14:59 88° WSW 00:20:24 10° SSE
STPSAT 2 (USA 217) 4.5 00:13:02 10° S 00:17:30 69° ESE 00:19:36 31° NNE
NOSS 3-2 (A) 3.2 00:18:25 10° SSW 00:23:46 63° ESE 00:26:19 33° NE
Cosmos 158 Rocket 3.9 00:20:20 10° S 00:25:14 55° ESE 00:26:33 42° NE
SL-16 R/B 4.3 00:21:34 10° WSW 00:25:55 22° WNW 00:30:17 10° N
Cosmos 2297 4.4 00:20:23 10° NNW 00:25:57 56° WSW 00:31:30 10° S
Cosmos 2228 Rocket 3.0 00:26:05 10° S 00:30:37 73° E 00:32:19 38° NNE
Cosmos 1470 Rocket 4.0 00:26:43 10° NNW 00:30:58 59° W 00:35:12 10° S
BREEZE-M DEB (TANK) 2.2 00:27:10 10° WSW 00:31:14 58° NNW 00:31:23 57° NNW
Cosmos 1680 Rocket 3.6 00:29:51 10° S 00:34:56 53° ESE 00:35:23 51° E
Cosmos 1812 2.5 00:32:12 10° S 00:35:56 85° SSE 00:35:56 85° SSE
USA 215 4.1 00:34:27 18° NNE 00:38:54 44° NW 00:45:01 10° WSW
COSMO-SKYMED 1 4.2 00:36:08 10° N 00:40:00 33° WNW 00:43:53 10° SW
USA 238 DEB 3.5 00:34:39 10° SSW 00:41:08 76° ESE 00:43:44 40° NE
USA 238 3.5 00:34:44 10° SSW 00:41:13 76° ESE 00:43:47 40° NE
CZ-2D R/B 4.1 00:41:42 10° S 00:45:23 48° W 00:49:06 10° NNW
MOS 1 Rocket 3.7 00:40:37 13° N 00:45:31 78° WNW 00:50:50 10° SSW
Meteor 2-6 Rocket 4.3 00:40:09 10° SSW 00:45:48 74° W 00:50:37 14° N
Nadezhda 3 Rocket 4.2 00:45:41 10° SSW 00:52:00 73° W 00:58:23 10° N
Cosmos 2112 Rocket 4.0 00:49:23 10° S 00:53:57 63° SSE 00:53:57 63° SSE
X-37B 3.5 00:53:15 10° WNW 00:53:55 13° NW 00:53:55 13° NW
Okean-O 3.0 00:53:01 10° S 00:57:23 61° WSW 01:01:47 10° NNW
FALCON 9 R/B 3.6 00:58:12 10° W 00:58:37 15° W 00:58:37 15° W
USA 267 4.0 01:09:12 37° N 01:09:12 37° N 01:13:54 10° NNW
Cosmos 1821 Rocket 4.2 01:03:40 10° NNW 01:09:52 68° W 01:16:09 10° S
USA 281 3.3 01:09:13 10° SSE 01:15:45 73° WSW 01:22:20 10° NNW
CZ-2C R/B 4.1 01:11:48 10° S 01:16:40 42° W 01:21:20 10° NNW
Cosmos 2369 Rocket 3.3 01:30:45 10° NW 01:36:00 40° WSW 01:37:02 37° SW
CZ-4 R/B 4.3 01:33:20 10° SW 01:40:23 - NW 01:33:45 12° SW
H-2A R/B 4.4 01:43:11 10° SSW 01:51:28 16° NW 01:52:41 10° NNW
CENTAUR R/B 3.5 01:43:18 10° SW 01:47:09 40° W 01:47:09 40° W
ATLAS CENTAUR R/B 4.5 01:50:03 10° NW 02:02:18 40° WSW 02:03:51 36° SW
CENTAUR R/B 4.1 09:23:19 39° NNE 09:24:48 42° NE 09:33:03 10° ESE
Atlas Centaur 2 3.8 09:34:28 35° ESE 09:34:28 35° ESE 09:38:14 10° E
ATLAS 2AS CENTAUR R/B 3.2 09:38:11 65° ESE 09:38:11 65° ESE 09:45:55 10° NE
NOSS 3-2 (A) 4.0 09:51:01 84° NE 09:51:04 84° ENE 09:59:46 10° SSE
Lacrosse 4 Rocket 3.7 10:03:37 21° ENE 10:03:37 21° ENE 10:06:56 10° ESE
FENGYUN 3A 4.3 10:02:47 10° NNE 10:08:04 53° E 10:13:18 10° S
USA 238 DEB 3.7 10:08:23 82° NW 10:08:46 87° WSW 10:16:22 10° SSE
USA 238 3.7 10:08:26 81° NW 10:08:52 88° WSW 10:16:28 10° SSE
Cosmos 1709 Rocket 4.0 10:10:28 10° S 10:16:48 83° E 10:23:13 10° N
Meteor 2-3 Rocket 4.3 10:11:29 10° S 10:17:02 57° E 10:22:41 10° NNE
Cosmos 1461 4.1 10:18:00 44° E 10:18:00 44° E 10:21:27 10° SE
ADEOS Rocket 4.2 10:12:35 10° S 10:15:29 30° SSW 10:15:29 30° SSW
Cosmos 1603 3.8 10:18:18 67° NE 10:18:40 70° ENE 10:24:17 10° SSE
Cosmos 1943 3.4 10:23:32 54° N 10:24:44 69° ENE 10:30:22 10° SSE
CZ-4C R/B 2.0 10:26:54 69° NE 10:26:54 69° NE 10:31:45 10° NNE
BREEZE M DEB (TANK) 4.4 10:10:15 10° SW 10:29:41 65° SE 10:34:14 10° ENE
GPS 2-04 Rocket1 3.8 10:33:14 40° ENE 10:33:14 40° ENE 10:35:50 10° E
OAO 3 Rocket 4.4 10:37:37 30° S 10:37:37 30° S 10:40:58 10° SE
ERS-2 3.3 10:33:51 10° SE 10:37:16 40° ENE 10:37:36 39° ENE
OAO 1 Rocket 4.2 10:37:30 82° WNW 10:37:44 86° N 10:43:03 10° E
Cosmos 1933 3.6 10:41:12 65° SE 10:41:12 65° SE 10:44:44 10° S
Cosmos 1782 4.5 10:39:16 12° NNE 10:42:36 33° E 10:46:16 10° SE
ATLAS 3B R/B 4.1 10:39:42 11° NNW 10:45:38 34° NE 10:52:06 10° ESE
Cosmos 1151 Rocket 3.2 10:44:42 38° NNE 10:46:13 69° E 10:50:29 10° SSE
METEOR-M 4.0 10:42:03 10° N 10:47:24 82° WNW 10:52:44 10° SSW
ASTRO E2 3.8 10:49:23 32° S 10:49:23 32° S 10:52:37 10° SE
SJ-12 4.2 10:47:34 10° NNE 10:51:36 64° E 10:55:37 10° S
RESURS DK-1 2.2 10:51:32 66° SSW 10:52:06 88° WNW 10:56:16 10° NNE
Cosmos 158 Rocket 4.3 10:50:04 20° N 10:53:27 61° ENE 10:58:25 10° SSE
ATLAS CENTAUR R/B 3.8 10:57:19 10° NNE 10:59:43 16° NE 11:02:10 10° E
Cosmos 1844 Rocket 2.7 10:55:35 10° SSW 11:01:12 83° ESE 11:06:53 10° NNE
Centaur AC-116 4.3 11:00:41 25° SW 11:01:37 28° SSW 11:04:04 10° SE
Meteor 1-4 Rocket 2.2 11:03:45 75° NNW 11:04:00 85° W 11:07:27 10° S
Cosmos 2184 Rocket 4.3 10:58:28 10° S 11:04:42 72° E 11:11:03 10° N
Meteor 2-17 Rocket 4.3 11:00:03 10° SSW 11:06:04 72° W 11:12:07 10° N
CRYOSAT 2 4.3 11:01:17 10° S 11:06:08 90° E 11:11:01 10° N
Cosmos 1680 Rocket 3.9 11:01:35 10° N 11:06:52 64° ENE 11:12:06 10° SSE
Cosmos 1328 Rocket 3.4 11:04:11 21° NNW 11:07:05 77° W 11:11:31 10° S
Lacrosse 5 3.2 11:09:02 22° NNW 11:09:02 22° NNW 11:12:16 10° NNE
COSMOS 2455 3.6 11:07:57 10° S 11:13:47 55° ESE 11:19:38 10° NE
NOSS 3-2 (C) 4.4 11:10:07 25° NW 11:14:45 49° WSW 11:23:02 10° S
OAO 2 Rocket 3.2 11:12:56 36° W 11:15:02 85° N 11:20:11 10° E
CENTAUR R/B 3.5 11:10:33 23° NW 11:15:45 49° WSW 11:24:09 10° S
Cosmos 1844 3.6 11:10:17 10° SSW 11:15:49 88° ESE 11:21:25 10° NNE
ADEOS 4.1 11:15:34 10° N 11:20:15 34° WNW 11:24:54 10° SW
BREEZE-M (TANK) 4.4 11:05:02 10° SW 11:21:03 64° SE 11:24:58 10° ENE
Atlas Centaur 2 2.6 11:17:04 21° WSW 11:21:24 59° S 11:26:38 10° ESE
Cosmos 1689 Rocket 2.4 11:20:44 10° SSE 11:23:33 63° ENE 11:26:00 13° N
USA 234 3.6 11:18:30 10° NE 11:25:01 70° SE 11:31:32 10° SW
Cosmos 1743 Rocket 3.5 11:21:05 10° S 11:25:31 86° W 11:30:01 10° N
Cosmos 2112 Rocket 4.1 11:21:21 10° NNW 11:26:45 84° ENE 11:32:04 10° SSE
Aureole 2 Rocket 1.6 11:24:31 10° SSW 11:27:02 76° ESE 11:29:34 10° NNE
Cosmos 1408 Rocket 4.0 11:23:10 10° SSW 11:27:20 38° W 11:31:31 10° N
ATLAS 2AS CENTAUR R/B 3.8 11:25:44 20° W 11:29:35 30° NW 11:36:19 10° NNE
Cosmos 1898 Rocket 3.8 11:25:55 10° SW 11:30:55 42° WNW 11:35:59 10° N
COSMO-SKYMED 1 2.5 11:26:53 10° S 11:31:11 67° W 11:35:30 10° NNW
ATLAS 5 CENTAUR R/B 3.4 11:28:05 10° S 11:31:32 30° ESE 11:35:12 10° NE
H-2A R/B 3.9 11:28:38 10° NNE 11:32:11 36° E 11:35:44 10° SSE
Milstar 3 Cent rocket 4.0 11:26:49 16° WSW 11:32:58 59° S 11:48:26 10° ESE
Gbstr 26 Del rocket 4.0 11:33:44 14° NNW 11:36:32 33° NE 11:40:14 10° ESE
SAR-Lupe-4 3.7 11:33:12 10° S 11:36:40 50° W 11:39:55 12° NNW
BREEZE-M DEB (TANK) 4.3 11:36:44 14° NNW 11:37:36 16° N 11:40:00 10° NE
APEX 4.5 11:34:25 10° SSW 11:39:59 84° ESE 11:46:44 10° NNE
Lacrosse 4 Rocket 2.3 11:39:58 19° WNW 11:42:15 31° WSW 11:46:10 10° S
Envisat 3.4 11:38:19 10° NNE 11:43:23 69° ESE 11:48:26 10° S
Cosmos 1805 Rocket 3.8 11:40:16 10° S 11:44:40 73° E 11:49:06 10° N
CZ-4B R/B 3.6 11:41:09 10° N 11:45:15 36° WNW 11:49:13 10° SW
CZ-4B R/B 3.1 11:44:08 10° SW 11:45:33 15° WSW 11:45:33 15° WSW
Cosmos 1862 3.4 11:42:24 10° SSW 11:46:22 53° W 11:50:21 10° N
Cosmos 1937 Rocket 3.8 11:42:46 10° SW 11:47:34 40° WNW 11:52:28 10° N
YAOGAN 6 2.7 11:45:34 10° NNE 11:49:03 74° E 11:52:30 10° S
MOS 1 Rocket 3.6 11:45:05 10° SSE 11:49:45 75° ENE 11:54:46 10° N
Nadezhda 3 Rocket 4.2 11:46:04 10° N 11:52:23 81° E 11:58:34 10° S
